Regional Weather Roundup
Issued by NWS

Home | Current Version | Previous Version | Text Only | Print | Product List | Glossary On
Versions: 1 2 3 4 5 6 7 8 9 10 11 12 13 14 15 16 17 18 19 20 21 22 23 24 25 26 27 28 29 30 31 32 33 34 35 36 37 38 39 40 41 42 43 44 45 46 47 48 49 50
370
ASUS43 KTOP 242259
RWRKS

WEATHER ROUNDUP FOR KANSAS
NATIONAL WEATHER SERVICE GOODLAND KS
600 PM CDT SUN JUL 24 2016

NOTE:  "FAIR" INDICATES FEW OR NO CLOUDS BELOW 12,000 FEET WITH NO
SIGNIFICANT WEATHER AND/OR OBSTRUCTIONS TO VISIBILITY.

KSZ001>006-013>018-027>032-041>047-250000-
NORTHWEST KANSAS

CITY           SKY/WX    TMP DP  RH WIND       PRES   REMARKS
GOODLAND       LGT RAIN  90  61  37 E18       30.05F
HAYS           SUNNY     90  66  45 E20       29.98S
HILL CITY      SUNNY     88  62  41 E17G26    30.01F
RUSSELL        MOSUNNY   88  70  55 NE20G29   29.97S
$$

KSZ061>065-074>080-084>089-250000-
SOUTHWEST KANSAS

CITY           SKY/WX    TMP DP  RH WIND       PRES   REMARKS
DODGE CITY     CLOUDY    94  65  38 S7        29.96F HX  96
ELKHART          N/A     92  59  33 N3          N/A
GARDEN CITY    CLOUDY    91  68  46 S7        29.98S HX  95
GREAT BEND     SUNNY     95  70  43 NE20      29.93S HX 101
LIBERAL        MOSUNNY   97  63  32 CALM      29.98S HX  98
$$

KSZ066>073-081>083-090>101-250000-
SOUTHEAST KANSAS

CITY           SKY/WX    TMP DP  RH WIND       PRES   REMARKS
CHANUTE        SUNNY     96  73  47 S6        29.92S HX 105
COFFEYVILLE    MOSUNNY   99  70  38 S6        29.90S HX 106
HUTCHINSON     SUNNY     97  71  42 E8        29.91F HX 104
NEWTON         SUNNY     95  72  47 VRB6      29.93F HX 103
PARSONS        SUNNY     99  71  40 SW5       29.92S HX 107
WICHITA INTL   MOSUNNY  100  69  36 SE12      29.89F HX 106
WICHITA JABRA  MOSUNNY   96  75  50 E8        29.91S HX 108
WINFIELD       MOSUNNY   98  69  38 SE10      29.90F HX 104
$$

KSZ007>012-019>026-033>040-048>060-102>105-250000-
NORTHEAST KANSAS

CITY           SKY/WX    TMP DP  RH WIND       PRES   REMARKS
CONCORDIA      CLOUDY    79  66  64 NE10      30.00F
EMPORIA        CLOUDY    97  73  45 NE12      29.93S HX 107
LAWRENCE       MOSUNNY   88  77  69 N10       29.94S HX 100
MANHATTAN      CLOUDY    86  73  65 NE17      29.96F
OLATHE IND     MOSUNNY   91  72  53 N15       29.95R HX  98
OLATHE EXE     CLOUDY    94  72  48 N10       29.94S HX 102
SALINA         SUNNY     93  69  45 NE15G24   29.94F HX  98
TOPEKA BILLARD   N/A     87  77  72 N7        29.95S HX  99
TOPEKA FORBES  CLOUDY    91  75  59 N10       29.95S HX 101
$$




USA.gov is the U.S. government's official web portal to all federal, state and local government web resources and services.